Location: Antioch Baptist Church
(32.6696°N, 85.7327°W)
Time: 11:53:56
(UTC+00:00)

NOSS 3-3 (C) - Pass Details

Date: 14 July 2020
Orbit: 824 x 1388 km, 63.4° (Epoch: 03 August)

Event Time Altitude Azimuth Distance (km) Brightness Sun altitude
Rises 01:17:04 0° 218° (SW) 3,354 6.9 -5.4°
Reaches altitude 10° 01:19:27 10° 221° (SW) 2,446 6.3 -5.9°
Maximum altitude 01:25:00 64° 302° (WNW) 979 4.4 -6.9°
Drops below altitude 10° 01:31:10 10° 24° (NNE) 2,704 6.4 -8.0°
Sets 01:33:55 0° 28° (NNE) 3,737 7.1 -8.5°
